Milwaukee, WI

6:54 PM CST on December 07, 2016 (GMT -0600)
Gen Mitchell International

Weather History for KMKE - June, 2013

Change the Weather History Date:

Thursday, June 13, 2013

  Actual Average Record
Temperature  
Mean Temperature 62 °F 66 °F  
Max Temperature 68 °F 75 °F 95 °F (1956)
Min Temperature 55 °F 56 °F 42 °F (1968)
Degree Days  
Heating Degree Days 3 3  
Month to date heating degree days 70 56  
Since 1 June heating degree days 70 56  
Since 1 July heating degree days 6812 6866  
Cooling Degree Days 0 4  
Month to date cooling degree days 12 33  
Year to date cooling degree days 51 63  
Since 1 June cooling degree days 12 33  
Growing Degree Days 12 (Base 50)    
Moisture  
Dew Point 53 °F    
Average Humidity 75    
Maximum Humidity 90    
Minimum Humidity 59    
Precipitation  
Precipitation 0.00 in 0.14 in 3.04 in (1950)
Month to date precipitation 0.90 1.68  
Year to date precipitation 20.41 14.32  
Snow  
Snow 0.00 in 0.00 in 0.00 in ()
Month to date snowfall 0.0 0.0  
Since 1 June snowfall 0.0 0.0  
Since 1 July snowfall 45.0 46.9  
Snow Depth 0.00 in    
Sea Level Pressure  
Sea Level Pressure 29.91 in    
Wind  
Wind Speed 11 mph (NNE)    
Max Wind Speed 23 mph    
Max Gust Speed 32 mph    
Visibility 10 miles    
Events      
T = Trace of Precipitation, MM = Missing Value Source: NWS Daily Summary

Daily Weather History Graph

Daily Weather History Graph

Search for Another Location

Airport or City:

Trip Planner

Search our weather history database for the weather conditions in past years. The results will help you decide how hot, cold, wet, or windy it might be!

Date:

Astronomy

Jun. 13, 2013 Rise Set
Actual Time 5:12 AM CDT 8:31 PM CDT
Civil Twilight 4:36 AM CDT 9:06 PM CDT
Nautical Twilight 3:51 AM CDT 9:52 PM CDT
Astronomical Twilight 2:54 AM CDT 10:49 PM CDT
Moon 9:54 AM CDT (6/13) 11:31 PM CDT (6/13)
Length of Visible Light 16h 30m
Length of Day
15h 19m
Waxing Crescent, 22% of the Moon is Illuminated
Jun 13
Waxing Crescent
Jun 16
First Quarter
Jun 23
Full
Jun 29
Last Quarter
Jul 8
New

Hourly Weather History & Observations

Time (CDT) Temp. Dew Point Humidity Pressure Visibility Wind Dir Wind Speed Gust Speed Precip Events Conditions
12:14 AM 60.8 °F 57.2 °F 88% 29.72 in 3.0 mi North 9.2 mph - N/A   Overcast
12:30 AM 59.0 °F 57.2 °F 94% 29.72 in 10.0 mi NNE 8.1 mph - N/A   Overcast
12:52 AM 60.1 °F 57.0 °F 90% 29.71 in 10.0 mi North 8.1 mph - N/A   Overcast
1:04 AM 60.8 °F 55.4 °F 82% 29.71 in 10.0 mi NNE 10.4 mph - N/A   Mostly Cloudy
1:14 AM 60.8 °F 55.4 °F 82% 29.73 in 10.0 mi North 10.4 mph - N/A   Mostly Cloudy
1:52 AM 60.1 °F 55.0 °F 83% 29.74 in 10.0 mi NNW 10.4 mph - N/A   Overcast
2:52 AM 60.1 °F 52.0 °F 75% 29.75 in 10.0 mi North 8.1 mph - N/A   Mostly Cloudy
3:52 AM 61.0 °F 51.1 °F 70% 29.78 in 10.0 mi North 10.4 mph 17.3 mph N/A   Scattered Clouds
4:52 AM 62.1 °F 51.1 °F 67% 29.80 in 10.0 mi North 9.2 mph - N/A   Mostly Cloudy
5:52 AM 62.1 °F 48.9 °F 62% 29.84 in 10.0 mi NNE 16.1 mph 24.2 mph N/A   Mostly Cloudy
6:52 AM 60.1 °F 52.0 °F 75% 29.87 in 10.0 mi NNE 6.9 mph - N/A   Scattered Clouds
7:52 AM 64.9 °F 51.1 °F 61% 29.88 in 10.0 mi NNE 11.5 mph 19.6 mph N/A   Scattered Clouds
8:52 AM 68.0 °F 53.1 °F 59% 29.91 in 10.0 mi North 13.8 mph 20.7 mph N/A   Scattered Clouds
9:52 AM 66.9 °F 54.0 °F 63% 29.93 in 10.0 mi NNE 17.3 mph 24.2 mph N/A   Scattered Clouds
10:52 AM 66.0 °F 55.0 °F 68% 29.95 in 10.0 mi NNE 11.5 mph - N/A   Partly Cloudy
11:52 AM 66.0 °F 55.9 °F 70% 29.96 in 10.0 mi NNE 12.7 mph 19.6 mph N/A   Partly Cloudy
12:52 PM 63.0 °F 54.0 °F 72% 29.98 in 10.0 mi NNE 13.8 mph - N/A   Partly Cloudy
1:52 PM 66.0 °F 55.0 °F 68% 29.99 in 10.0 mi NNE 10.4 mph - N/A   Partly Cloudy
2:52 PM 64.9 °F 55.0 °F 70% 30.01 in 10.0 mi NE 11.5 mph - N/A   Mostly Cloudy
3:52 PM 64.0 °F 54.0 °F 70% 30.01 in 10.0 mi NE 15.0 mph 20.7 mph N/A   Partly Cloudy
4:52 PM 60.1 °F 52.0 °F 75% 30.02 in 10.0 mi NE 15.0 mph 21.9 mph N/A   Partly Cloudy
5:52 PM 60.1 °F 52.0 °F 75% 30.02 in 10.0 mi NNE 13.8 mph - N/A   Partly Cloudy
6:52 PM 60.1 °F 51.1 °F 72% 30.03 in 10.0 mi North 10.4 mph - N/A   Partly Cloudy
7:52 PM 57.9 °F 50.0 °F 75% 30.04 in 10.0 mi North 10.4 mph - N/A   Partly Cloudy
8:52 PM 55.9 °F 48.9 °F 77% 30.06 in 10.0 mi North 8.1 mph - N/A   Partly Cloudy
9:52 PM 55.9 °F 48.9 °F 77% 30.08 in 10.0 mi North 9.2 mph - N/A   Clear
10:52 PM 55.0 °F 48.9 °F 80% 30.08 in 10.0 mi North 8.1 mph - N/A   Clear
11:52 PM 55.9 °F 48.9 °F 77% 30.08 in 10.0 mi North 8.1 mph - N/A   Clear